Alamosa, CO

10:38 PM MST on November 18, 2017 (GMT -0700)
San Luis Valley Regional / Bergman Field

Weather History for KALS - August, 2014

Change the Weather History Date:

Thursday, August 14, 2014

  Actual Average Record
Temperature  
Mean Temperature 66 °F 63 °F  
Max Temperature 80 °F 80 °F 88 °F (1951)
Min Temperature 51 °F 47 °F 36 °F (1974)
Degree Days  
Heating Degree Days 0 2  
Month to date heating degree days 32 25  
Since 1 June heating degree days 180 238  
Since 1 July heating degree days 54 70  
Cooling Degree Days 1 0  
Month to date cooling degree days 1 12  
Year to date cooling degree days 58 50  
Since 1 June cooling degree days 58 50  
Growing Degree Days 18 (Base 50)    
Moisture  
Dew Point 50 °F    
Average Humidity 61    
Maximum Humidity 86    
Minimum Humidity 35    
Precipitation  
Precipitation T in 0.05 in 0.65 in (2009)
Month to date precipitation T 0.57  
Year to date precipitation 3.35 4.25  
Snow  
Snow 0.00 in 0.00 in 0.00 in (2002)
Month to date snowfall 0.0 0.0  
Since 1 June snowfall 0.0 0.0  
Since 1 July snowfall 0.0 0.0  
Snow Depth 0.00 in    
Sea Level Pressure  
Sea Level Pressure 30.00 in    
Wind  
Wind Speed 10 mph (South)    
Max Wind Speed 25 mph    
Max Gust Speed 31 mph    
Visibility 10 miles    
Events Rain    
T = Trace of Precipitation, MM = Missing Value Source: NWS Daily Summary

Daily Weather History Graph

Daily Weather History Graph

Search for Another Location

Airport or City:

Trip Planner

Search our weather history database for the weather conditions in past years. The results will help you decide how hot, cold, wet, or windy it might be!

Date:

Astronomy

Aug. 14, 2014 Rise Set
Actual Time 6:18 AM MDT 7:56 PM MDT
Civil Twilight 5:50 AM MDT 8:24 PM MDT
Nautical Twilight 5:17 AM MDT 8:58 PM MDT
Astronomical Twilight 4:41 AM MDT 9:33 PM MDT
Moon 10:29 PM MDT (8/14) 10:51 AM MDT (8/14)
Length of Visible Light 14h 33m
Length of Day
13h 38m
Waning Gibbous, 78% of the Moon is Illuminated
Aug 14
Waning Gibbous
Aug 17
Last Quarter
Aug 25
New
Sep 2
First Quarter
Sep 8
Full

Hourly Weather History & Observations

Time (MDT) Temp. Dew Point Humidity Pressure Visibility Wind Dir Wind Speed Gust Speed Precip Events Conditions
12:52 AM 60.1 °F 50.0 °F 69% 30.01 in 10.0 mi SSE 11.5 mph - N/A   Overcast
1:52 AM 61.0 °F 48.9 °F 64% 29.99 in 10.0 mi South 10.4 mph - N/A   Mostly Cloudy
2:52 AM 57.9 °F 48.9 °F 72% 29.99 in 10.0 mi South 10.4 mph - N/A   Scattered Clouds
3:52 AM 57.0 °F 50.0 °F 77% 30.00 in 10.0 mi SSE 6.9 mph - N/A   Mostly Cloudy
4:52 AM 57.0 °F 51.1 °F 81% 30.00 in 10.0 mi SSE 8.1 mph - N/A   Mostly Cloudy
5:52 AM 57.0 °F 51.1 °F 81% 30.01 in 10.0 mi South 6.9 mph - N/A   Overcast
6:52 AM 57.9 °F 52.0 °F 81% 30.04 in 10.0 mi SSE 6.9 mph - N/A   Overcast
7:52 AM 60.1 °F 52.0 °F 75% 30.05 in 10.0 mi South 10.4 mph - N/A   Clear
8:52 AM 64.9 °F 50.0 °F 58% 30.04 in 10.0 mi South 13.8 mph 23.0 mph N/A   Clear
9:52 AM 66.9 °F 50.0 °F 54% 30.03 in 10.0 mi SSW 13.8 mph - N/A   Clear
10:52 AM 73.0 °F 46.0 °F 38% 29.99 in 10.0 mi South 15.0 mph - N/A   Clear
11:52 AM 75.0 °F 46.9 °F 37% 29.97 in 10.0 mi South 11.5 mph 20.7 mph N/A   Partly Cloudy
12:52 PM 77.0 °F 48.0 °F 36% 29.95 in 10.0 mi South 16.1 mph 27.6 mph N/A   Mostly Cloudy
1:52 PM 75.9 °F 46.9 °F 36% 29.93 in 10.0 mi South 13.8 mph 23.0 mph N/A   Overcast
2:52 PM 78.1 °F 48.0 °F 35% 29.93 in 10.0 mi West 16.1 mph 26.5 mph N/A   Overcast
3:52 PM 73.0 °F 50.0 °F 44% 29.97 in 10.0 mi NNW 8.1 mph - 0.00 in Rain Light Rain
4:52 PM 66.0 °F 52.0 °F 60% 30.00 in 10.0 mi North 16.1 mph 23.0 mph 0.00 in   Overcast
5:52 PM 66.9 °F 54.0 °F 63% 29.98 in 10.0 mi NE 12.7 mph - 0.00 in   Scattered Clouds
6:52 PM 70.0 °F 50.0 °F 49% 29.96 in 10.0 mi Calm Calm - N/A   Clear
7:52 PM 64.9 °F 51.1 °F 61% 29.97 in 10.0 mi SW 6.9 mph - N/A   Clear
8:52 PM 60.1 °F 52.0 °F 75% 30.00 in 10.0 mi SW 6.9 mph - N/A   Clear
9:52 PM 57.9 °F 51.1 °F 78% 30.03 in 10.0 mi WSW 4.6 mph - N/A   Partly Cloudy
10:52 PM 59.0 °F 52.0 °F 78% 30.02 in 10.0 mi NW 4.6 mph - N/A   Partly Cloudy
11:52 PM 55.0 °F 51.1 °F 86% 30.02 in 10.0 mi ENE 4.6 mph - N/A   Clear